Location: Augirein
(42.9320°N, 0.9181°E)
Time: 14:39:12
(UTC+00:00)

Lacrosse 5 rocket - Pass Details

Date: 20 June 2021
Orbit: 460 x 633 km, 57.0° (Epoch: 03 August)

Event Time Altitude Azimuth Distance (km) Brightness Sun altitude
Rises 03:08:23 0° 317° (NW) 2,495 4.7 -10.5°
Reaches altitude 10° 03:10:35 10° 325° (NW) 1,626 3.9 -10.2°
Maximum altitude 03:14:03 41° 37° (NE) 708 2.6 -9.8°
Drops below altitude 10° 03:17:36 10° 109° (ESE) 1,675 4.2 -9.3°
Sets 03:19:54 0° 117° (ESE) 2,581 5.0 -9.0°
